Regional Weather Roundup
Issued by NWS Cleveland, OH

Home | Current Version | Previous Version | Graphics & Text | Print | Product List | Glossary On
Versions: 1 2 3 4 5 6 7 8 9 10 11 12 13 14 15 16 17 18 19 20 21 22 23 24 25 26 27 28 29 30 31 32 33 34 35 36 37 38 39 40 41 42 43 44 45 46 47 48 49 50
000
ASUS41 KCLE 201610
RWRCLE
OHIO REGIONAL WEATHER ROUNDUP
NATIONAL WEATHER SERVICE CLEVELAND, OH
1200 PM EDT MON OCT 20 2014

NOTE: "FAIR" INDICATES FEW OR NO CLOUDS BELOW 12,000 FEET WITH NO
SIGNIFICANT WEATHER AND/OR OBSTRUCTIONS TO VISIBILITY.

OHZ001>008-015>018-024>027-034-035-043-044-201700-
   NORTHWEST OHIO

CITY           SKY/WX    TMP DP  RH WIND       PRES   REMARKS
DEFIANCE       CLOUDY    54  46  74 SW12      29.87S
FINDLAY        CLOUDY    54  48  80 S12       29.86F
TOLEDO EXPRESS CLOUDY    56  46  69 SW13      29.84F
TOLEDO EXEC    MOSUNNY   57  46  66 SW17      29.85F
LIMA           CLOUDY    55  48  77 S9G20     29.87F
$$

OHZ009>014-019>023-028>033-038-089-201700-
   NORTHEAST OHIO

CITY           SKY/WX    TMP DP  RH WIND       PRES   REMARKS
CLE-HOPKINS    LGT RAIN  51  44  77 S8        29.91F
CLE-LAKEFRONT  PTSUNNY   55  43  63 S13       29.88F
CUY CO. ARPT   PTSUNNY   55  46  71 S12       29.90F
LORAIN-ELYRIA  PTSUNNY   54  45  71 SW9       29.89F
ASHTABULA      PTSUNNY   51  42  71 S13       29.91F
AKRON-CANTON   CLOUDY    54  42  64 SW14      29.91F
WOOSTER        PTSUNNY   55  43  63 S10       29.91F
MANSFIELD      PTSUNNY   56  44  64 SW16G24   29.90F
YOUNGSTOWN     CLOUDY    52  42  69 S8        29.92F
$$

OHZ042-051>053-060>062-070>072-077>081-201700-
  SOUTHWEST OHIO

CITY           SKY/WX    TMP DP  RH WIND       PRES   REMARKS
CINC-COVINGTON NOT AVBL
CINC-LUNKEN    PTSUNNY   59  45  59 S12       29.98F
HAMILTON       MOSUNNY   60  47  61 SW12G17   29.95F
DAYTON         PTSUNNY   59  47  64 SW16      29.92F
WRIGHT-PAT AFB MOSUNNY   59  47  64 SW16      29.92F
DAYTON GENERAL MOSUNNY   57  47  69 SW15G23   29.93F
WILMINGTON       N/A    N/A N/A N/A MISG      29.94F
$$

OHZ036-037-039>041-045>050-054>059-063>069-073>076-082>088-201700-
  CENTRAL AND SOUTHEAST OHIO

CITY           SKY/WX    TMP DP  RH WIND       PRES   REMARKS
COLUMBUS       CLOUDY    56  44  64 S9        29.93F
OSU AIRPORT    MOSUNNY   58  46  64 SW9       29.92F
BOLTON FIELD   MOSUNNY   61  46  59 SW14G21   29.94F
RICKENBACK AFB MOSUNNY   54  44  69 S12       29.94F
NEWARK         CLOUDY    55  43  63 S7        29.93F
MARION         PTSUNNY   56  46  69 SW16      29.91S
LANCASTER      PTSUNNY   54  44  69 SW10G20   29.95F
ZANESVILLE     CLOUDY    54  43  66 S9        29.96F
NEW PHILLY     CLOUDY    53  42  66 S7        29.95F
$$



USA.gov is the U.S. government's official web portal to all federal, state and local government web resources and services.